AirNav   Everest Fuels
 
 1049 users online  

25PA The Washington Hospital Rooftop Heliport
Washington, Pennsylvania, USA

GOING TO WASHINGTON?


FAA INFORMATION EFFECTIVE 18 JUNE 2020

Location

FAA Identifier: 25PA
Lat/Long: 40-10-59.4000N 080-14-46.2000W
40-10.990000N 080-14.770000W
40.1831667,-80.2461667
(estimated)
Elevation: 1250 ft. / 381 m (estimated)
Variation: 09W (2010)
From city: 1 mile N of WASHINGTON, PA
Time zone: UTC -4 (UTC -5 during Standard Time)
Zip code: 15301

Heliport Operations

Heliport use: Private use. Permission required prior to landing
Activation date: 03/2011
Control tower: no
ARTCC: CLEVELAND CENTER
FSS: ALTOONA FLIGHT SERVICE STATION
NOTAMs facility: FDC (NOTAM-D service not available)
Attendance: CONTINUOUS
Wind indicator: yes
Segmented circle: no

Heliport Communications

WX AWOS-3PT at AFJ (3 nm SW): 119.175 (724-228-3529)
WX ASOS at AGC (18 nm NE): 120.55 (412-466-8968)
WX ASOS at HLG (18 nm W): 127.375 (304-277-3504)
WX ASOS at PIT (19 nm N): PHONE 412-472-0145
WX AWOS-3 at FWQ (19 nm E): 118.475 (724-379-5815)
WX AWOS-A at 42PN (20 nm NE): PHONE 412-442-2213

Nearby radio navigation aids

VOR radial/distance  VOR name  Freq  Var
AGCr248/11.0ALLEGHENY VOR/DME110.0009W
HLGr114/15.5WHEELING VOR/DME112.2007W
AIRr076/28.0BELLAIRE VOR/DME117.1007W
EWCr190/38.5ELLWOOD CITY VOR/DME115.8008W

 
NDB name  Hdg/Dist  Freq  Var  ID
CADIZ102/35.323907WCFX -.-. ..-. -..-

Heliport Services

Runway Information

Helipad H1

Dimensions: 40 x 40 ft. / 12 x 12 m
Surface: ROOFTOP
Latitude: 40-10.990000N
Longitude: 080-14.770000W
Elevation: 1250.0 ft.
Traffic pattern: leftleft

Heliport Ownership and Management from official FAA records

Ownership: Privately-owned
Owner: THE WASHINGTON HOSPITAL
155 WILSON AVE
WASHINGTON, PA 15301
Phone 724-225-7000
Manager: JOHN M. LUCAS
155 WILSON AVE
WASHINGTON, PA 15301
Phone 724-223-3618

Heliport Operational Statistics

Aircraft based on the field: 1
Helicopters: 1
    

Additional Remarks

FOR CD CTC PITTSBURGH APCH AT 412-472-5591

Instrument Procedures

There are no published instrument procedures at 25PA.

Some nearby airports with instrument procedures:

KAFJ - Washington County Airport (3 nm SW)
G05 - Finleyville Airpark (11 nm E)
KWAY - Greene County Airport (18 nm S)
KAGC - Allegheny County Airport (18 nm NE)
KHLG - Wheeling Ohio County Airport (18 nm W)
KPIT - Pittsburgh International Airport (19 nm N)
KFWQ - Rostraver Airport (19 nm E)
 
Loc | Ops | Rwys | IFR | FBO | Links
Com | Nav | Svcs | Stats | Notes
Aerial photo
No photo
 
Sectional chart

 
Airport distance calculator
Flying to The Washington Hospital Rooftop Heliport? Find the distance to fly.

From to 25PA

Sunrise and sunset
Times for 12-Jul-2020
 Local
(UTC-4)
 Zulu
(UTC)
Morning civil twilight05:3209:32
Sunrise06:0410:04
Sunset20:5000:50
Evening civil twilight21:2201:22

Current date and time
Zulu (UTC)  12-Jul-2020 19:08:51
Local (UTC-4)  12-Jul-2020 15:08:51
 
METAR
KAFJ 
4nm S 
121856Z AUTO 22008G17KT 10SM VCTS SCT031 BKN038 BKN047 26/20 A2982 RMK AO2 LTG DSNT NW TSB41 SLP089 T02610200
KAGC 
18nm NE 
121853Z 26011G15KT 10SM SCT041 BKN055 26/17 A2977 RMK AO2 LTG DSNT SE AND W SLP077 T02610172
KHLG 
19nm W 
121853Z 24010KT 10SM VCTS SCT028 25/18 A2980 RMK AO2 LTG DSNT NE AND E SLP085 T02500178
KPIT 
19nm N 
121851Z 26009KT 10SM FEW028 SCT043 BKN090 27/16 A2977 RMK AO2 LTG DSNT SE-SW SLP079 CB DSNT SE-SW T02670156
KP53 
19nm E 
121856Z AUTO 33007KT 18/13 A2993 RMK AO1 SLP135 T01830133
TAF
KAGC 
18nm NE 
121723Z 1218/1318 23006KT P6SM BKN045 FM122000 25005KT P6SM VCTS BKN040CB FM130000 32003KT P6SM BKN040 FM131700 33008KT P6SM SCT050
KHLG 
19nm W 
121723Z 1218/1318 24005KT P6SM BKN045 FM122000 25005KT P6SM VCTS BKN040CB FM130000 32003KT P6SM BKN040 FM131700 33008KT P6SM SCT050
KPIT 
19nm N 
121723Z 1218/1324 24006KT P6SM BKN045 FM122000 25005KT P6SM VCTS BKN040CB FM130000 32003KT P6SM BKN040 FM131500 32005KT P6SM SCT050
NOTAMs
Click for the latest NOTAMs
NOTAMs are issued by the DoD/FAA and will open in a separate window not controlled by AirNav.

 

 
 

Would you like to see your business listed on this page?

 If your business provides an interesting product or service to pilots, flight crews, aircraft, or users of the The Washington Hospital Rooftop Heliport, you should consider listing it here.  To start the listing process, click on the button below
 
Add a business
 

Other Pages about The Washington Hospital Rooftop Heliport

Update a link
 
Copyright © AirNav, LLC. All rights reserved. Privacy Policy  Contact